Weather History for KTIW - February, 2013

Change the Weather History Date:

Tuesday, February 19, 2013

  Actual Average Record
Temperature  
Mean Temperature 42 °F -  
Max Temperature 48 °F 47 °F 52 °F (2004)
Min Temperature 34 °F 36 °F 26 °F (2006)
Degree Days  
Heating Degree Days 22    
Moisture  
Dew Point 34 °F    
Average Humidity 76    
Maximum Humidity 89    
Minimum Humidity 52    
Precipitation  
Precipitation 0.01 in - - ()
Sea Level Pressure  
Sea Level Pressure 29.85 in    
Wind  
Wind Speed 3 mph (North)    
Max Wind Speed 9 mph    
Max Gust Speed -    
Visibility 10 miles    
Events Rain    
Averages and records for this station are not official NWS values.
T = Trace of Precipitation, MM = Missing Value Source: NWS Daily Summary

Daily Weather History Graph

Daily Weather History Graph

Search for Another Location

Airport or City:

Trip Planner

Search our weather history database for the weather conditions in past years. The results will help you decide how hot, cold, wet, or windy it might be!

Date:

Astronomy

Feb. 19, 2013 Rise Set
Actual Time 7:07 AM PST 5:40 PM PST
Civil Twilight 6:36 AM PST 6:12 PM PST
Nautical Twilight 6:01 AM PST 6:47 PM PST
Astronomical Twilight 5:25 AM PST 7:23 PM PST
Moon 12:04 PM PST (2/19) 2:56 AM PST (2/19)
Length of Visible Light 11h 35m
Length of Day
10h 33m
Waxing Gibbous, 68% of the Moon is Illuminated
Feb 19
Waxing Gibbous
Feb 25
Full
Mar 4
Last Quarter
Mar 11
New
Mar 19
First Quarter

Hourly Weather History & Observations

Time (PST) Temp. Windchill Dew Point Humidity Pressure Visibility Wind Dir Wind Speed Gust Speed Precip Events Conditions
12:53 AM 37.9 °F 35.5 °F 35.1 °F 89% 29.75 in 10.0 mi NNW 3.5 mph - N/A   Overcast
1:53 AM 39.0 °F - 36.0 °F 89% 29.75 in 10.0 mi Calm Calm - 0.01 in Rain Light Rain
2:53 AM 39.9 °F - 36.0 °F 86% 29.75 in 10.0 mi Calm Calm - 0.00 in   Overcast
3:53 AM 39.0 °F 36.8 °F 36.0 °F 89% 29.74 in 10.0 mi NNW 3.5 mph - N/A   Overcast
4:53 AM 39.0 °F 35.7 °F 35.1 °F 86% 29.74 in 10.0 mi NE 4.6 mph - N/A   Overcast
5:53 AM 39.0 °F 32.8 °F 35.1 °F 86% 29.75 in 10.0 mi NNW 9.2 mph - N/A   Overcast
6:53 AM 39.0 °F - 36.0 °F 89% 29.77 in 10.0 mi Calm Calm - N/A   Overcast
7:53 AM 39.0 °F - 36.0 °F 89% 29.78 in 10.0 mi Calm Calm - N/A   Overcast
8:53 AM 41.0 °F 39.0 °F 37.0 °F 86% 29.81 in 10.0 mi NW 3.5 mph - N/A   Mostly Cloudy
10:53 AM 44.1 °F 40.1 °F 37.0 °F 76% 29.83 in 10.0 mi North 6.9 mph - N/A   Mostly Cloudy
11:53 AM 46.0 °F 42.5 °F 35.1 °F 66% 29.83 in 10.0 mi North 6.9 mph - N/A   Mostly Cloudy
12:53 PM 48.0 °F - 33.1 °F 56% 29.84 in 10.0 mi NNE 9.2 mph - N/A   Mostly Cloudy
1:53 PM 48.9 °F - 32.0 °F 52% 29.85 in 10.0 mi North 9.2 mph - N/A   Clear
2:53 PM 48.0 °F - 34.0 °F 58% 29.85 in 10.0 mi North 8.1 mph - N/A   Scattered Clouds
4:53 PM 45.0 °F 42.6 °F 35.1 °F 68% 29.88 in 10.0 mi North 4.6 mph - N/A   Scattered Clouds
5:53 PM 43.0 °F 40.3 °F 30.9 °F 62% 29.90 in 10.0 mi North 4.6 mph - N/A   Scattered Clouds
6:53 PM 41.0 °F 38.0 °F 30.9 °F 67% 29.92 in 10.0 mi NNW 4.6 mph - N/A   Scattered Clouds
7:53 PM 42.1 °F 38.4 °F 32.0 °F 67% 29.94 in 10.0 mi NNE 5.8 mph - N/A   Clear
8:53 PM 41.0 °F - 32.0 °F 70% 29.96 in 10.0 mi Calm Calm - N/A   Clear
9:53 PM 37.0 °F - 30.9 °F 79% 29.98 in 10.0 mi Calm Calm - N/A   Clear
10:53 PM 37.9 °F - 30.9 °F 76% 30.01 in 10.0 mi Calm Calm - N/A   Clear
11:53 PM 34.0 °F - 30.9 °F 89% 30.02 in 10.0 mi Calm Calm - N/A   Clear